#datetime,building,power
2024-02-20T00:00:00,mfh,26.29
2024-02-20T00:01:00,mfh,26.24
2024-02-20T00:02:00,mfh,26.56
2024-02-20T00:03:00,mfh,26.57
2024-02-20T00:04:00,mfh,26.64
2024-02-20T00:05:00,mfh,26.53
2024-02-20T00:06:00,mfh,26.62
2024-02-20T00:07:00,mfh,26.50
2024-02-20T00:08:00,mfh,26.05
2024-02-20T00:09:00,mfh,26.03
2024-02-20T00:10:00,mfh,26.26
2024-02-20T00:11:00,mfh,26.84
2024-02-20T00:12:00,mfh,26.80
2024-02-20T00:13:00,mfh,26.78
2024-02-20T00:14:00,mfh,26.98
2024-02-20T00:15:00,mfh,26.96
2024-02-20T00:16:00,mfh,26.60
2024-02-20T00:17:00,mfh,27.44
2024-02-20T00:18:00,mfh,26.05
2024-02-20T00:19:00,mfh,26.50
2024-02-20T00:20:00,mfh,25.87
2024-02-20T00:21:00,mfh,26.52
2024-02-20T00:22:00,mfh,26.47
2024-02-20T00:23:00,mfh,26.44
2024-02-20T00:24:00,mfh,26.43
2024-02-20T00:25:00,mfh,26.96
2024-02-20T00:26:00,mfh,26.64
2024-02-20T00:27:00,mfh,25.93
2024-02-20T00:28:00,mfh,25.86
2024-02-20T00:29:00,mfh,25.89
2024-02-20T00:30:00,mfh,25.82
2024-02-20T00:31:00,mfh,26.81
2024-02-20T00:32:00,mfh,26.38
2024-02-20T00:33:00,mfh,26.61
2024-02-20T00:34:00,mfh,26.82
2024-02-20T00:35:00,mfh,26.71
2024-02-20T00:36:00,mfh,26.63
2024-02-20T00:37:00,mfh,27.10
2024-02-20T00:38:00,mfh,26.44
2024-02-20T00:39:00,mfh,25.96
2024-02-20T00:40:00,mfh,26.56
2024-02-20T00:41:00,mfh,27.12
2024-02-20T00:42:00,mfh,26.55
2024-02-20T00:43:00,mfh,26.58
2024-02-20T00:44:00,mfh,26.47
2024-02-20T00:45:00,mfh,26.39
2024-02-20T00:46:00,mfh,26.32
2024-02-20T00:47:00,mfh,26.04
2024-02-20T00:48:00,mfh,25.67
2024-02-20T00:49:00,mfh,25.83
2024-02-20T00:50:00,mfh,26.70
2024-02-20T00:51:00,mfh,26.26
2024-02-20T00:52:00,mfh,26.77
2024-02-20T00:53:00,mfh,26.86
2024-02-20T00:54:00,mfh,26.45
2024-02-20T00:55:00,mfh,26.41
2024-02-20T00:56:00,mfh,26.39
2024-02-20T00:57:00,mfh,27.31
2024-02-20T00:58:00,mfh,25.75
2024-02-20T00:59:00,mfh,26.48
2024-02-20T01:00:00,mfh,26.97
2024-02-20T01:01:00,mfh,26.72
2024-02-20T01:02:00,mfh,26.95
2024-02-20T01:03:00,mfh,26.73
2024-02-20T01:04:00,mfh,26.75
2024-02-20T01:05:00,mfh,26.66
2024-02-20T01:06:00,mfh,26.73
2024-02-20T01:07:00,mfh,26.08
2024-02-20T01:08:00,mfh,26.09
2024-02-20T01:09:00,mfh,26.87
2024-02-20T01:10:00,mfh,27.79
2024-02-20T01:11:00,mfh,27.66
2024-02-20T01:12:00,mfh,27.57
2024-02-20T01:13:00,mfh,27.68
2024-02-20T01:14:00,mfh,27.12
2024-02-20T01:15:00,mfh,26.37
2024-02-20T01:16:00,mfh,26.34
2024-02-20T01:17:00,mfh,26.33
2024-02-20T01:18:00,mfh,25.76
2024-02-20T01:19:00,mfh,26.05
2024-02-20T01:20:00,mfh,25.76
2024-02-20T01:21:00,mfh,26.27
2024-02-20T01:22:00,mfh,26.31
2024-02-20T01:23:00,mfh,26.49
2024-02-20T01:24:00,mfh,27.10
2024-02-20T01:25:00,mfh,26.22
2024-02-20T01:26:00,mfh,26.84
2024-02-20T01:27:00,mfh,25.76
2024-02-20T01:28:00,mfh,25.76
2024-02-20T01:29:00,mfh,26.81
2024-02-20T01:30:00,mfh,26.57
2024-02-20T01:31:00,mfh,26.45
2024-02-20T01:32:00,mfh,26.58
2024-02-20T01:33:00,mfh,26.63
2024-02-20T01:34:00,mfh,26.39
2024-02-20T01:35:00,mfh,26.77
2024-02-20T01:36:00,mfh,26.56
2024-02-20T01:37:00,mfh,25.72
2024-02-20T01:38:00,mfh,25.73
2024-02-20T01:39:00,mfh,25.85
2024-02-20T01:40:00,mfh,25.91
2024-02-20T01:41:00,mfh,26.54
2024-02-20T01:42:00,mfh,26.53
2024-02-20T01:43:00,mfh,26.54
2024-02-20T01:44:00,mfh,26.60
2024-02-20T01:45:00,mfh,26.67
2024-02-20T01:46:00,mfh,26.66
2024-02-20T01:47:00,mfh,25.92
2024-02-20T01:48:00,mfh,25.89
2024-02-20T01:49:00,mfh,26.44
2024-02-20T01:50:00,mfh,26.58
2024-02-20T01:51:00,mfh,26.48
2024-02-20T01:52:00,mfh,26.69
2024-02-20T01:53:00,mfh,26.59
2024-02-20T01:54:00,mfh,26.88
2024-02-20T01:55:00,mfh,26.68
2024-02-20T01:56:00,mfh,26.61
2024-02-20T01:57:00,mfh,27.34
2024-02-20T01:58:00,mfh,26.09
2024-02-20T01:59:00,mfh,26.13
2024-02-20T02:00:00,mfh,26.37
2024-02-20T02:01:00,mfh,26.94
2024-02-20T02:02:00,mfh,26.85
2024-02-20T02:03:00,mfh,27.37
2024-02-20T02:04:00,mfh,26.84
2024-02-20T02:05:00,mfh,27.53
2024-02-20T02:06:00,mfh,26.81
2024-02-20T02:07:00,mfh,26.13
2024-02-20T02:08:00,mfh,26.68
2024-02-20T02:09:00,mfh,26.41
2024-02-20T02:10:00,mfh,27.02
2024-02-20T02:11:00,mfh,27.05
2024-02-20T02:12:00,mfh,26.80
2024-02-20T02:13:00,mfh,26.82
2024-02-20T02:14:00,mfh,26.36
2024-02-20T02:15:00,mfh,26.33
2024-02-20T02:16:00,mfh,26.33
2024-02-20T02:17:00,mfh,25.64
2024-02-20T02:18:00,mfh,25.66
2024-02-20T02:19:00,mfh,25.64
2024-02-20T02:20:00,mfh,26.65
2024-02-20T02:21:00,mfh,26.58
2024-02-20T02:22:00,mfh,27.31
2024-02-20T02:23:00,mfh,27.36
2024-02-20T02:24:00,mfh,26.39
2024-02-20T02:25:00,mfh,26.46
2024-02-20T02:26:00,mfh,25.84
2024-02-20T02:27:00,mfh,25.81
2024-02-20T02:28:00,mfh,25.80
2024-02-20T02:29:00,mfh,26.01
2024-02-20T02:30:00,mfh,27.00
2024-02-20T02:31:00,mfh,26.70
2024-02-20T02:32:00,mfh,26.61
2024-02-20T02:33:00,mfh,26.81
2024-02-20T02:34:00,mfh,26.89
2024-02-20T02:35:00,mfh,27.45
2024-02-20T02:36:00,mfh,26.66
2024-02-20T02:37:00,mfh,26.78
2024-02-20T02:38:00,mfh,26.89
2024-02-20T02:39:00,mfh,27.59
2024-02-20T02:40:00,mfh,27.56
2024-02-20T02:41:00,mfh,27.58
2024-02-20T02:42:00,mfh,26.93
2024-02-20T02:43:00,mfh,26.88
2024-02-20T02:44:00,mfh,26.81
2024-02-20T02:45:00,mfh,27.39
2024-02-20T02:46:00,mfh,26.41
2024-02-20T02:47:00,mfh,26.19
2024-02-20T02:48:00,mfh,26.89
2024-02-20T02:49:00,mfh,26.91
2024-02-20T02:50:00,mfh,27.54
2024-02-20T02:51:00,mfh,27.03
2024-02-20T02:52:00,mfh,27.32
2024-02-20T02:53:00,mfh,27.39
2024-02-20T02:54:00,mfh,26.70
2024-02-20T02:55:00,mfh,26.75
2024-02-20T02:56:00,mfh,26.41
2024-02-20T02:57:00,mfh,27.25
2024-02-20T02:58:00,mfh,26.13
2024-02-20T02:59:00,mfh,27.23
2024-02-20T03:00:00,mfh,26.71
2024-02-20T03:01:00,mfh,26.78
2024-02-20T03:02:00,mfh,26.83
2024-02-20T03:03:00,mfh,26.96
2024-02-20T03:04:00,mfh,26.83
2024-02-20T03:05:00,mfh,26.03
2024-02-20T03:06:00,mfh,26.03
2024-02-20T03:07:00,mfh,26.19
2024-02-20T03:08:00,mfh,27.45
2024-02-20T03:09:00,mfh,26.60
2024-02-20T03:10:00,mfh,26.42
2024-02-20T03:11:00,mfh,26.60
2024-02-20T03:12:00,mfh,27.07
2024-02-20T03:13:00,mfh,26.94
2024-02-20T03:14:00,mfh,27.26
2024-02-20T03:15:00,mfh,26.04
2024-02-20T03:16:00,mfh,26.07
2024-02-20T03:17:00,mfh,26.05
2024-02-20T03:18:00,mfh,27.10
2024-02-20T03:19:00,mfh,27.53
2024-02-20T03:20:00,mfh,26.80
2024-02-20T03:21:00,mfh,26.86
2024-02-20T03:22:00,mfh,26.82
2024-02-20T03:23:00,mfh,27.38
2024-02-20T03:24:00,mfh,27.51
2024-02-20T03:25:00,mfh,27.65
2024-02-20T03:26:00,mfh,27.72
2024-02-20T03:27:00,mfh,28.10
2024-02-20T03:28:00,mfh,27.98
2024-02-20T03:29:00,mfh,26.87
2024-02-20T03:30:00,mfh,26.34
2024-02-20T03:31:00,mfh,26.41
2024-02-20T03:32:00,mfh,26.58
2024-02-20T03:33:00,mfh,26.69
2024-02-20T03:34:00,mfh,26.76
2024-02-20T03:35:00,mfh,25.67
2024-02-20T03:36:00,mfh,25.73
2024-02-20T03:37:00,mfh,25.76
2024-02-20T03:38:00,mfh,26.38
2024-02-20T03:39:00,mfh,26.46
2024-02-20T03:40:00,mfh,26.47
2024-02-20T03:41:00,mfh,26.68
2024-02-20T03:42:00,mfh,26.92
2024-02-20T03:43:00,mfh,26.80
2024-02-20T03:44:00,mfh,26.20
2024-02-20T03:45:00,mfh,26.45
2024-02-20T03:46:00,mfh,26.62
2024-02-20T03:47:00,mfh,26.75
2024-02-20T03:48:00,mfh,26.74
2024-02-20T03:49:00,mfh,27.02
2024-02-20T03:50:00,mfh,26.63
2024-02-20T03:51:00,mfh,26.76
2024-02-20T03:52:00,mfh,26.71
2024-02-20T03:53:00,mfh,27.29
2024-02-20T03:54:00,mfh,26.00
2024-02-20T03:55:00,mfh,26.06
2024-02-20T03:56:00,mfh,26.26
2024-02-20T03:57:00,mfh,26.48
2024-02-20T03:58:00,mfh,26.51
2024-02-20T03:59:00,mfh,26.52
2024-02-20T04:00:00,mfh,27.00
2024-02-20T04:01:00,mfh,26.47
2024-02-20T04:02:00,mfh,26.90
2024-02-20T04:03:00,mfh,27.56
2024-02-20T04:04:00,mfh,26.60
2024-02-20T04:05:00,mfh,27.05
2024-02-20T04:06:00,mfh,26.73
2024-02-20T04:07:00,mfh,27.28
2024-02-20T04:08:00,mfh,27.29
2024-02-20T04:09:00,mfh,27.00
2024-02-20T04:10:00,mfh,26.47
2024-02-20T04:11:00,mfh,26.52
2024-02-20T04:12:00,mfh,26.58
2024-02-20T04:13:00,mfh,26.68
2024-02-20T04:14:00,mfh,25.87
2024-02-20T04:15:00,mfh,25.90
2024-02-20T04:16:00,mfh,25.92
2024-02-20T04:17:00,mfh,26.62
2024-02-20T04:18:00,mfh,26.83
2024-02-20T04:19:00,mfh,26.73
2024-02-20T04:20:00,mfh,27.10
2024-02-20T04:21:00,mfh,28.11
2024-02-20T04:22:00,mfh,26.83
2024-02-20T04:23:00,mfh,26.47
2024-02-20T04:24:00,mfh,26.66
2024-02-20T04:25:00,mfh,26.54
2024-02-20T04:26:00,mfh,27.14
2024-02-20T04:27:00,mfh,27.84
2024-02-20T04:28:00,mfh,27.18
2024-02-20T04:29:00,mfh,26.90
2024-02-20T04:30:00,mfh,27.01
2024-02-20T04:31:00,mfh,27.11
2024-02-20T04:32:00,mfh,26.48
2024-02-20T04:33:00,mfh,26.45
2024-02-20T04:34:00,mfh,26.39
2024-02-20T04:35:00,mfh,26.26
2024-02-20T04:36:00,mfh,26.91
2024-02-20T04:37:00,mfh,26.63
2024-02-20T04:38:00,mfh,26.96
2024-02-20T04:39:00,mfh,26.44
2024-02-20T04:40:00,mfh,26.48
2024-02-20T04:41:00,mfh,26.48
2024-02-20T04:42:00,mfh,26.76
2024-02-20T04:43:00,mfh,25.86
2024-02-20T04:44:00,mfh,26.00
2024-02-20T04:45:00,mfh,26.13
2024-02-20T04:46:00,mfh,26.72
2024-02-20T04:47:00,mfh,26.65
2024-02-20T04:48:00,mfh,26.67
2024-02-20T04:49:00,mfh,26.57
2024-02-20T04:50:00,mfh,26.45
2024-02-20T04:51:00,mfh,26.44
2024-02-20T04:52:00,mfh,25.84
2024-02-20T04:53:00,mfh,26.92
2024-02-20T04:54:00,mfh,26.05
2024-02-20T04:55:00,mfh,26.75
2024-02-20T04:56:00,mfh,26.43
2024-02-20T04:57:00,mfh,26.47
2024-02-20T04:58:00,mfh,27.00
2024-02-20T04:59:00,mfh,26.48
2024-02-20T05:00:00,mfh,32.59
2024-02-20T05:01:00,mfh,51.07
2024-02-20T05:02:00,mfh,55.64
2024-02-20T05:03:00,mfh,55.12
2024-02-20T05:04:00,mfh,56.05
2024-02-20T05:05:00,mfh,56.55
2024-02-20T05:06:00,mfh,57.87
2024-02-20T05:07:00,mfh,56.31
2024-02-20T05:08:00,mfh,56.43
2024-02-20T05:09:00,mfh,58.14
2024-02-20T05:10:00,mfh,57.47
2024-02-20T05:11:00,mfh,57.72
2024-02-20T05:12:00,mfh,57.57
2024-02-20T05:13:00,mfh,56.95
2024-02-20T05:14:00,mfh,57.67
2024-02-20T05:15:00,mfh,57.65
2024-02-20T05:16:00,mfh,57.63
2024-02-20T05:17:00,mfh,58.37
2024-02-20T05:18:00,mfh,57.95
2024-02-20T05:19:00,mfh,57.89
2024-02-20T05:20:00,mfh,57.73
2024-02-20T05:21:00,mfh,57.15
2024-02-20T05:22:00,mfh,58.04
2024-02-20T05:23:00,mfh,58.07
2024-02-20T05:24:00,mfh,57.29
2024-02-20T05:25:00,mfh,58.74
2024-02-20T05:26:00,mfh,57.51
2024-02-20T05:27:00,mfh,58.17
2024-02-20T05:28:00,mfh,58.27
2024-02-20T05:29:00,mfh,58.90
2024-02-20T05:30:00,mfh,59.74
2024-02-20T05:31:00,mfh,60.07
2024-02-20T05:32:00,mfh,58.75
2024-02-20T05:33:00,mfh,57.99
2024-02-20T05:34:00,mfh,58.56
2024-02-20T05:35:00,mfh,57.41
2024-02-20T05:36:00,mfh,57.34
2024-02-20T05:37:00,mfh,57.65
2024-02-20T05:38:00,mfh,57.42
2024-02-20T05:39:00,mfh,57.67
2024-02-20T05:40:00,mfh,57.74
2024-02-20T05:41:00,mfh,58.02
2024-02-20T05:42:00,mfh,58.06
2024-02-20T05:43:00,mfh,58.09
2024-02-20T05:44:00,mfh,57.85
2024-02-20T05:45:00,mfh,57.24
2024-02-20T05:46:00,mfh,57.31
2024-02-20T05:47:00,mfh,58.15
2024-02-20T05:48:00,mfh,57.34
2024-02-20T05:49:00,mfh,58.11
2024-02-20T05:50:00,mfh,58.31
2024-02-20T05:51:00,mfh,57.96
2024-02-20T05:52:00,mfh,57.92
2024-02-20T05:53:00,mfh,58.06
2024-02-20T05:54:00,mfh,57.28
2024-02-20T05:55:00,mfh,58.10
2024-02-20T05:56:00,mfh,57.74
2024-02-20T05:57:00,mfh,58.46
2024-02-20T05:58:00,mfh,58.76
2024-02-20T05:59:00,mfh,59.09
2024-02-20T06:00:00,mfh,58.28
2024-02-20T06:01:00,mfh,64.59
2024-02-20T06:02:00,mfh,64.49
2024-02-20T06:03:00,mfh,64.23
2024-02-20T06:04:00,mfh,65.19
2024-02-20T06:05:00,mfh,65.46
2024-02-20T06:06:00,mfh,65.84
2024-02-20T06:07:00,mfh,64.83
2024-02-20T06:08:00,mfh,64.04
2024-02-20T06:09:00,mfh,64.46
2024-02-20T06:10:00,mfh,65.33
2024-02-20T06:11:00,mfh,66.31
2024-02-20T06:12:00,mfh,65.49
2024-02-20T06:13:00,mfh,65.10
2024-02-20T06:14:00,mfh,64.62
2024-02-20T06:15:00,mfh,65.46
2024-02-20T06:16:00,mfh,65.31
2024-02-20T06:17:00,mfh,64.81
2024-02-20T06:18:00,mfh,64.63
2024-02-20T06:19:00,mfh,64.56
2024-02-20T06:20:00,mfh,64.84
2024-02-20T06:21:00,mfh,64.48
2024-02-20T06:22:00,mfh,64.77
2024-02-20T06:23:00,mfh,65.77
2024-02-20T06:24:00,mfh,66.52
2024-02-20T06:25:00,mfh,67.06
2024-02-20T06:26:00,mfh,67.40
2024-02-20T06:27:00,mfh,67.69
2024-02-20T06:28:00,mfh,68.70
2024-02-20T06:29:00,mfh,66.42
2024-02-20T06:30:00,mfh,66.00
2024-02-20T06:31:00,mfh,66.43
2024-02-20T06:32:00,mfh,66.55
2024-02-20T06:33:00,mfh,66.79
2024-02-20T06:34:00,mfh,66.71
2024-02-20T06:35:00,mfh,66.60
2024-02-20T06:36:00,mfh,66.89
2024-02-20T06:37:00,mfh,66.36
2024-02-20T06:38:00,mfh,66.33
2024-02-20T06:39:00,mfh,66.15
2024-02-20T06:40:00,mfh,65.38
2024-02-20T06:41:00,mfh,66.30
2024-02-20T06:42:00,mfh,66.44
2024-02-20T06:43:00,mfh,67.49
2024-02-20T06:44:00,mfh,66.99
2024-02-20T06:45:00,mfh,66.95
2024-02-20T06:46:00,mfh,67.88
2024-02-20T06:47:00,mfh,73.38
2024-02-20T06:48:00,mfh,72.35
2024-02-20T06:49:00,mfh,72.97
2024-02-20T06:50:00,mfh,72.41
2024-02-20T06:51:00,mfh,72.59
2024-02-20T06:52:00,mfh,72.08
2024-02-20T06:53:00,mfh,72.34
2024-02-20T06:54:00,mfh,72.86
2024-02-20T06:55:00,mfh,72.18
2024-02-20T06:56:00,mfh,72.90
2024-02-20T06:57:00,mfh,73.12
2024-02-20T06:58:00,mfh,73.12
2024-02-20T06:59:00,mfh,72.88
2024-02-20T07:00:00,mfh,71.76
2024-02-20T07:01:00,mfh,71.73
2024-02-20T07:02:00,mfh,71.91
2024-02-20T07:03:00,mfh,72.19
2024-02-20T07:04:00,mfh,71.29
2024-02-20T07:05:00,mfh,71.21
2024-02-20T07:06:00,mfh,71.39
2024-02-20T07:07:00,mfh,72.51
2024-02-20T07:08:00,mfh,72.43
2024-02-20T07:09:00,mfh,71.81
2024-02-20T07:10:00,mfh,72.22
2024-02-20T07:11:00,mfh,73.62
2024-02-20T07:12:00,mfh,74.13
2024-02-20T07:13:00,mfh,73.13
2024-02-20T07:14:00,mfh,74.46
2024-02-20T07:15:00,mfh,73.94
2024-02-20T07:16:00,mfh,73.99
2024-02-20T07:17:00,mfh,74.31
2024-02-20T07:18:00,mfh,73.65
2024-02-20T07:19:00,mfh,72.74
2024-02-20T07:20:00,mfh,72.91
2024-02-20T07:21:00,mfh,72.96
2024-02-20T07:22:00,mfh,83.50
2024-02-20T07:23:00,mfh,83.42
2024-02-20T07:24:00,mfh,83.64
2024-02-20T07:25:00,mfh,83.57
2024-02-20T07:26:00,mfh,83.34
2024-02-20T07:27:00,mfh,83.47
2024-02-20T07:28:00,mfh,83.62
2024-02-20T07:29:00,mfh,83.58
2024-02-20T07:30:00,mfh,83.47
2024-02-20T07:31:00,mfh,83.78
2024-02-20T07:32:00,mfh,83.44
2024-02-20T07:33:00,mfh,83.56
2024-02-20T07:34:00,mfh,84.12
2024-02-20T07:35:00,mfh,83.59
2024-02-20T07:36:00,mfh,83.16
2024-02-20T07:37:00,mfh,82.50
2024-02-20T07:38:00,mfh,82.56
2024-02-20T07:39:00,mfh,82.51
2024-02-20T07:40:00,mfh,82.51
2024-02-20T07:41:00,mfh,82.50
2024-02-20T07:42:00,mfh,82.67
2024-02-20T07:43:00,mfh,82.31
2024-02-20T07:44:00,mfh,82.35
2024-02-20T07:45:00,mfh,82.60
2024-02-20T07:46:00,mfh,82.93
2024-02-20T07:47:00,mfh,82.87
2024-02-20T07:48:00,mfh,83.09
2024-02-20T07:49:00,mfh,82.68
2024-02-20T07:50:00,mfh,82.50
2024-02-20T07:51:00,mfh,82.57
2024-02-20T07:52:00,mfh,82.55
2024-02-20T07:53:00,mfh,82.10
2024-02-20T07:54:00,mfh,80.81
2024-02-20T07:55:00,mfh,79.05
2024-02-20T07:56:00,mfh,79.11
2024-02-20T07:57:00,mfh,78.40
2024-02-20T07:58:00,mfh,74.38
2024-02-20T07:59:00,mfh,74.59
2024-02-20T08:00:00,mfh,71.41
2024-02-20T08:01:00,mfh,69.19
2024-02-20T08:02:00,mfh,69.81
2024-02-20T08:03:00,mfh,69.74
2024-02-20T08:04:00,mfh,69.88
2024-02-20T08:05:00,mfh,70.38
2024-02-20T08:06:00,mfh,70.11
2024-02-20T08:07:00,mfh,69.41
2024-02-20T08:08:00,mfh,69.97
2024-02-20T08:09:00,mfh,70.82
2024-02-20T08:10:00,mfh,70.67
2024-02-20T08:11:00,mfh,71.33
2024-02-20T08:12:00,mfh,70.92
2024-02-20T08:13:00,mfh,70.33
2024-02-20T08:14:00,mfh,69.86
2024-02-20T08:15:00,mfh,70.86
2024-02-20T08:16:00,mfh,71.07
2024-02-20T08:17:00,mfh,70.99
2024-02-20T08:18:00,mfh,70.60
2024-02-20T08:19:00,mfh,74.96
2024-02-20T08:20:00,mfh,75.46
2024-02-20T08:21:00,mfh,75.74
2024-02-20T08:22:00,mfh,75.15
2024-02-20T08:23:00,mfh,74.95
2024-02-20T08:24:00,mfh,75.01
2024-02-20T08:25:00,mfh,76.18
2024-02-20T08:26:00,mfh,76.03
2024-02-20T08:27:00,mfh,76.25
2024-02-20T08:28:00,mfh,76.03
2024-02-20T08:29:00,mfh,78.15
2024-02-20T08:30:00,mfh,78.03
2024-02-20T08:31:00,mfh,77.46
2024-02-20T08:32:00,mfh,77.98
2024-02-20T08:33:00,mfh,77.34
2024-02-20T08:34:00,mfh,77.33
2024-02-20T08:35:00,mfh,77.04
2024-02-20T08:36:00,mfh,77.16
2024-02-20T08:37:00,mfh,77.52
2024-02-20T08:38:00,mfh,79.63
2024-02-20T08:39:00,mfh,78.94
2024-02-20T08:40:00,mfh,78.85
2024-02-20T08:41:00,mfh,78.87
2024-02-20T08:42:00,mfh,78.40
2024-02-20T08:43:00,mfh,78.82
2024-02-20T08:44:00,mfh,79.03
2024-02-20T08:45:00,mfh,77.47
2024-02-20T08:46:00,mfh,76.64
2024-02-20T08:47:00,mfh,76.59
2024-02-20T08:48:00,mfh,77.62
2024-02-20T08:49:00,mfh,77.17
2024-02-20T08:50:00,mfh,82.16
2024-02-20T08:51:00,mfh,82.36
2024-02-20T08:52:00,mfh,82.28
2024-02-20T08:53:00,mfh,82.62
2024-02-20T08:54:00,mfh,82.08
2024-02-20T08:55:00,mfh,82.21
2024-02-20T08:56:00,mfh,82.34
2024-02-20T08:57:00,mfh,82.69
2024-02-20T08:58:00,mfh,82.76
2024-02-20T08:59:00,mfh,82.36
2024-02-20T09:00:00,mfh,82.80
2024-02-20T09:01:00,mfh,82.46
2024-02-20T09:02:00,mfh,83.14
2024-02-20T09:03:00,mfh,82.51
2024-02-20T09:04:00,mfh,82.33
2024-02-20T09:05:00,mfh,83.17
2024-02-20T09:06:00,mfh,83.01
2024-02-20T09:07:00,mfh,82.83
2024-02-20T09:08:00,mfh,82.73
2024-02-20T09:09:00,mfh,82.62
2024-02-20T09:10:00,mfh,82.86
2024-02-20T09:11:00,mfh,81.85
2024-02-20T09:12:00,mfh,81.85
2024-02-20T09:13:00,mfh,81.64
2024-02-20T09:14:00,mfh,81.84
2024-02-20T09:15:00,mfh,83.12
2024-02-20T09:16:00,mfh,83.17
2024-02-20T09:17:00,mfh,83.12
2024-02-20T09:18:00,mfh,82.77
2024-02-20T09:19:00,mfh,83.00
2024-02-20T09:20:00,mfh,82.34
2024-02-20T09:21:00,mfh,82.58
2024-02-20T09:22:00,mfh,83.10
2024-02-20T09:23:00,mfh,82.66
2024-02-20T09:24:00,mfh,82.65
2024-02-20T09:25:00,mfh,82.68
2024-02-20T09:26:00,mfh,82.74
2024-02-20T09:27:00,mfh,82.58
2024-02-20T09:28:00,mfh,82.80
2024-02-20T09:29:00,mfh,82.22
2024-02-20T09:30:00,mfh,79.91
2024-02-20T09:31:00,mfh,77.99
2024-02-20T09:32:00,mfh,78.11
2024-02-20T09:33:00,mfh,77.67
2024-02-20T09:34:00,mfh,77.40
2024-02-20T09:35:00,mfh,78.70
2024-02-20T09:36:00,mfh,78.38
2024-02-20T09:37:00,mfh,78.59
2024-02-20T09:38:00,mfh,78.17
2024-02-20T09:39:00,mfh,77.50
2024-02-20T09:40:00,mfh,77.49
2024-02-20T09:41:00,mfh,77.93
2024-02-20T09:42:00,mfh,78.50
2024-02-20T09:43:00,mfh,77.36
2024-02-20T09:44:00,mfh,77.14
2024-02-20T09:45:00,mfh,76.91
2024-02-20T09:46:00,mfh,77.15
2024-02-20T09:47:00,mfh,77.49
2024-02-20T09:48:00,mfh,77.47
2024-02-20T09:49:00,mfh,77.49
2024-02-20T09:50:00,mfh,77.59
2024-02-20T09:51:00,mfh,77.57
2024-02-20T09:52:00,mfh,77.76
2024-02-20T09:53:00,mfh,77.42
2024-02-20T09:54:00,mfh,77.94
2024-02-20T09:55:00,mfh,77.74
2024-02-20T09:56:00,mfh,80.98
2024-02-20T09:57:00,mfh,80.98
2024-02-20T09:58:00,mfh,81.12
2024-02-20T09:59:00,mfh,82.34
2024-02-20T10:00:00,mfh,82.77
2024-02-20T10:01:00,mfh,82.75
2024-02-20T10:02:00,mfh,83.06
2024-02-20T10:03:00,mfh,82.97
2024-02-20T10:04:00,mfh,83.05
2024-02-20T10:05:00,mfh,82.83
2024-02-20T10:06:00,mfh,82.84
2024-02-20T10:07:00,mfh,82.83
2024-02-20T10:08:00,mfh,82.87
2024-02-20T10:09:00,mfh,82.78
2024-02-20T10:10:00,mfh,82.65
2024-02-20T10:11:00,mfh,82.39
2024-02-20T10:12:00,mfh,82.45
2024-02-20T10:13:00,mfh,82.46
2024-02-20T10:14:00,mfh,82.45
2024-02-20T10:15:00,mfh,83.25
2024-02-20T10:16:00,mfh,82.31
2024-02-20T10:17:00,mfh,82.66
2024-02-20T10:18:00,mfh,82.20
2024-02-20T10:19:00,mfh,82.17
2024-02-20T10:20:00,mfh,82.21
2024-02-20T10:21:00,mfh,82.24
2024-02-20T10:22:00,mfh,82.28
2024-02-20T10:23:00,mfh,82.37
2024-02-20T10:24:00,mfh,82.33
2024-02-20T10:25:00,mfh,82.03
2024-02-20T10:26:00,mfh,82.38
2024-02-20T10:27:00,mfh,82.38
2024-02-20T10:28:00,mfh,82.19
2024-02-20T10:29:00,mfh,79.22
2024-02-20T10:30:00,mfh,79.80
2024-02-20T10:31:00,mfh,79.49
2024-02-20T10:32:00,mfh,79.88
2024-02-20T10:33:00,mfh,79.98
2024-02-20T10:34:00,mfh,80.02
2024-02-20T10:35:00,mfh,79.95
2024-02-20T10:36:00,mfh,81.02
2024-02-20T10:37:00,mfh,80.57
2024-02-20T10:38:00,mfh,78.94
2024-02-20T10:39:00,mfh,78.75
2024-02-20T10:40:00,mfh,79.53
2024-02-20T10:41:00,mfh,82.84
2024-02-20T10:42:00,mfh,83.21
2024-02-20T10:43:00,mfh,83.43
2024-02-20T10:44:00,mfh,82.76
2024-02-20T10:45:00,mfh,82.74
2024-02-20T10:46:00,mfh,82.73
2024-02-20T10:47:00,mfh,82.87
2024-02-20T10:48:00,mfh,83.11
2024-02-20T10:49:00,mfh,82.67
2024-02-20T10:50:00,mfh,82.54
2024-02-20T10:51:00,mfh,82.41
2024-02-20T10:52:00,mfh,82.39
2024-02-20T10:53:00,mfh,83.11
2024-02-20T10:54:00,mfh,82.91
2024-02-20T10:55:00,mfh,82.95
2024-02-20T10:56:00,mfh,83.26
2024-02-20T10:57:00,mfh,82.96
2024-02-20T10:58:00,mfh,83.00
2024-02-20T10:59:00,mfh,83.03
2024-02-20T11:00:00,mfh,83.12
2024-02-20T11:01:00,mfh,83.07
2024-02-20T11:02:00,mfh,82.98
2024-02-20T11:03:00,mfh,82.57
2024-02-20T11:04:00,mfh,82.73
2024-02-20T11:05:00,mfh,82.99
2024-02-20T11:06:00,mfh,82.99
2024-02-20T11:07:00,mfh,83.11
2024-02-20T11:08:00,mfh,82.84
2024-02-20T11:09:00,mfh,83.00
2024-02-20T11:10:00,mfh,83.06
2024-02-20T11:11:00,mfh,82.98
2024-02-20T11:12:00,mfh,82.89
2024-02-20T11:13:00,mfh,82.95
2024-02-20T11:14:00,mfh,82.83
2024-02-20T11:15:00,mfh,82.89
2024-02-20T11:16:00,mfh,82.84
2024-02-20T11:17:00,mfh,82.72
2024-02-20T11:18:00,mfh,82.78
2024-02-20T11:19:00,mfh,83.19
2024-02-20T11:20:00,mfh,83.10
2024-02-20T11:21:00,mfh,83.52
2024-02-20T11:22:00,mfh,83.39
2024-02-20T11:23:00,mfh,83.11
2024-02-20T11:24:00,mfh,83.34
2024-02-20T11:25:00,mfh,83.44
2024-02-20T11:26:00,mfh,83.45
2024-02-20T11:27:00,mfh,83.83
2024-02-20T11:28:00,mfh,83.74
2024-02-20T11:29:00,mfh,83.59
2024-02-20T11:30:00,mfh,83.59
2024-02-20T11:31:00,mfh,83.92
2024-02-20T11:32:00,mfh,83.92
2024-02-20T11:33:00,mfh,84.16
2024-02-20T11:34:00,mfh,84.11
2024-02-20T11:35:00,mfh,84.80
2024-02-20T11:36:00,mfh,84.18
2024-02-20T11:37:00,mfh,84.11
2024-02-20T11:38:00,mfh,83.78
2024-02-20T11:39:00,mfh,83.73
2024-02-20T11:40:00,mfh,82.09
2024-02-20T11:41:00,mfh,82.25
2024-02-20T11:42:00,mfh,81.79
2024-02-20T11:43:00,mfh,81.53
2024-02-20T11:44:00,mfh,80.51
2024-02-20T11:45:00,mfh,80.45
2024-02-20T11:46:00,mfh,81.22
2024-02-20T11:47:00,mfh,81.09
2024-02-20T11:48:00,mfh,81.28
2024-02-20T11:49:00,mfh,81.18
2024-02-20T11:50:00,mfh,82.87
2024-02-20T11:51:00,mfh,82.93
2024-02-20T11:52:00,mfh,83.11
2024-02-20T11:53:00,mfh,82.22
2024-02-20T11:54:00,mfh,82.12
2024-02-20T11:55:00,mfh,81.63
2024-02-20T11:56:00,mfh,81.64
2024-02-20T11:57:00,mfh,81.94
2024-02-20T11:58:00,mfh,82.23
2024-02-20T11:59:00,mfh,82.19
2024-02-20T12:00:00,mfh,82.11
2024-02-20T12:01:00,mfh,82.24
2024-02-20T12:02:00,mfh,82.17
2024-02-20T12:03:00,mfh,82.23
2024-02-20T12:04:00,mfh,82.37
2024-02-20T12:05:00,mfh,82.20
2024-02-20T12:06:00,mfh,82.71
2024-02-20T12:07:00,mfh,82.22
2024-02-20T12:08:00,mfh,81.90
2024-02-20T12:09:00,mfh,82.00
2024-02-20T12:10:00,mfh,82.13
2024-02-20T12:11:00,mfh,81.92
2024-02-20T12:12:00,mfh,82.02
2024-02-20T12:13:00,mfh,82.54
2024-02-20T12:14:00,mfh,81.88
2024-02-20T12:15:00,mfh,81.80
2024-02-20T12:16:00,mfh,82.67
2024-02-20T12:17:00,mfh,81.74
2024-02-20T12:18:00,mfh,76.09
2024-02-20T12:19:00,mfh,75.61
2024-02-20T12:20:00,mfh,75.57
2024-02-20T12:21:00,mfh,76.01
2024-02-20T12:22:00,mfh,75.18
2024-02-20T12:23:00,mfh,75.63
2024-02-20T12:24:00,mfh,74.93
2024-02-20T12:25:00,mfh,75.50
2024-02-20T12:26:00,mfh,75.41
2024-02-20T12:27:00,mfh,75.36
2024-02-20T12:28:00,mfh,75.14
2024-02-20T12:29:00,mfh,76.26
2024-02-20T12:30:00,mfh,76.26
2024-02-20T12:31:00,mfh,76.38
2024-02-20T12:32:00,mfh,76.23
2024-02-20T12:33:00,mfh,76.29
2024-02-20T12:34:00,mfh,77.39
2024-02-20T12:35:00,mfh,77.65
2024-02-20T12:36:00,mfh,74.74
2024-02-20T12:37:00,mfh,73.92
2024-02-20T12:38:00,mfh,74.59
2024-02-20T12:39:00,mfh,74.08
2024-02-20T12:40:00,mfh,74.46
2024-02-20T12:41:00,mfh,75.23
2024-02-20T12:42:00,mfh,75.55
2024-02-20T12:43:00,mfh,74.86
2024-02-20T12:44:00,mfh,83.00
2024-02-20T12:45:00,mfh,83.00
2024-02-20T12:46:00,mfh,83.01
2024-02-20T12:47:00,mfh,83.45
2024-02-20T12:48:00,mfh,83.26
2024-02-20T12:49:00,mfh,83.05
2024-02-20T12:50:00,mfh,83.10
2024-02-20T12:51:00,mfh,82.57
2024-02-20T12:52:00,mfh,82.52
2024-02-20T12:53:00,mfh,82.80
2024-02-20T12:54:00,mfh,82.92
2024-02-20T12:55:00,mfh,83.24
2024-02-20T12:56:00,mfh,82.79
2024-02-20T12:57:00,mfh,82.77
2024-02-20T12:58:00,mfh,82.84
2024-02-20T12:59:00,mfh,82.84
2024-02-20T13:00:00,mfh,82.11
2024-02-20T13:01:00,mfh,82.47
2024-02-20T13:02:00,mfh,80.11
2024-02-20T13:03:00,mfh,77.36
2024-02-20T13:04:00,mfh,74.09
2024-02-20T13:05:00,mfh,75.10
2024-02-20T13:06:00,mfh,71.41
2024-02-20T13:07:00,mfh,69.93
2024-02-20T13:08:00,mfh,70.16
2024-02-20T13:09:00,mfh,70.27
2024-02-20T13:10:00,mfh,68.23
2024-02-20T13:11:00,mfh,68.04
2024-02-20T13:12:00,mfh,67.89
2024-02-20T13:13:00,mfh,68.42
2024-02-20T13:14:00,mfh,69.57
2024-02-20T13:15:00,mfh,68.33
2024-02-20T13:16:00,mfh,68.51
2024-02-20T13:17:00,mfh,69.17
2024-02-20T13:18:00,mfh,68.76